Dublin, VA

11:02 AM EDT on March 24, 2017 (GMT -0400)
New River Valley

Weather History for KPSK - November, 2013

Change the Weather History Date:

Saturday, November 30, 2013

  Actual Average (KBCB) Record (KBCB)
Temperature  
Mean Temperature 30 °F -  
Max Temperature 41 °F 48 °F 71 °F (1991)
Min Temperature 19 °F 27 °F 10 °F (1958)
Degree Days  
Heating Degree Days 35    
Moisture  
Dew Point 21 °F    
Average Humidity 75    
Maximum Humidity 93    
Minimum Humidity 49    
Precipitation  
Precipitation 0.00 in - - ()
Sea Level Pressure  
Sea Level Pressure 30.50 in    
Wind  
Wind Speed 1 mph (East)    
Max Wind Speed 5 mph    
Max Gust Speed -    
Visibility 10 miles    
Events      
Averages and records for this station are not official NWS values.
T = Trace of Precipitation, MM = Missing Value Source: NWS Daily Summary

Daily Weather History Graph

Daily Weather History Graph

Search for Another Location

Airport or City:

Trip Planner

Search our weather history database for the weather conditions in past years. The results will help you decide how hot, cold, wet, or windy it might be!

Date:

Astronomy

Nov. 30, 2013 Rise Set
Actual Time 7:16 AM EST 5:05 PM EST
Civil Twilight 6:48 AM EST 5:34 PM EST
Nautical Twilight 6:16 AM EST 6:06 PM EST
Astronomical Twilight 5:44 AM EST 6:37 PM EST
Moon 4:29 AM EST (11/30) 3:26 PM EST (11/30)
Length of Visible Light 10h 46m
Length of Day
9h 48m
Waning Crescent, 7% of the Moon is Illuminated
Nov 30
Waning Crescent
Dec 2
New
Dec 9
First Quarter
Dec 17
Full
Dec 25
Last Quarter

Hourly Weather History & Observations

Time (EST) Temp. Windchill Dew Point Humidity Pressure Visibility Wind Dir Wind Speed Gust Speed Precip Events Conditions
12:15 AM 24.8 °F - 19.4 °F 80% 30.60 in 10.0 mi Calm Calm - N/A   Clear
12:35 AM 23.0 °F - 19.4 °F 86% 30.60 in 10.0 mi Calm Calm - N/A   Clear
12:55 AM 24.8 °F - 21.2 °F 86% 30.60 in 10.0 mi Calm Calm - N/A   Clear
1:15 AM 24.8 °F - 21.2 °F 86% 30.60 in 10.0 mi Calm Calm - N/A   Clear
1:35 AM 24.8 °F - 21.2 °F 86% 30.60 in 10.0 mi Calm Calm - N/A   Clear
1:55 AM 26.6 °F 22.6 °F 21.2 °F 80% 30.60 in 10.0 mi ESE 3.5 mph - N/A   Clear
2:15 AM 24.8 °F 20.5 °F 19.4 °F 80% 30.60 in 10.0 mi ESE 3.5 mph - N/A   Clear
2:35 AM 24.8 °F - 19.4 °F 80% 30.60 in 10.0 mi Calm Calm - N/A   Clear
2:55 AM 24.8 °F - 19.4 °F 80% 30.60 in 10.0 mi Calm Calm - N/A   Clear
3:15 AM 24.8 °F - 19.4 °F 80% 30.60 in 10.0 mi Calm Calm - N/A   Clear
3:35 AM 21.2 °F - 17.6 °F 86% 30.60 in 10.0 mi Calm Calm - N/A   Clear
3:55 AM 23.0 °F - 19.4 °F 86% 30.59 in 10.0 mi Calm Calm - N/A   Clear
4:15 AM 23.0 °F - 19.4 °F 86% 30.58 in 10.0 mi Calm Calm - N/A   Clear
4:35 AM 23.0 °F - 19.4 °F 86% 30.59 in 10.0 mi Calm Calm - N/A   Clear
4:55 AM 24.8 °F - 19.4 °F 80% 30.58 in 10.0 mi Calm Calm - N/A   Clear
5:15 AM 21.2 °F - 17.6 °F 86% 30.59 in 10.0 mi Calm Calm - N/A   Clear
5:35 AM 21.2 °F - 17.6 °F 86% 30.58 in 10.0 mi Calm Calm - N/A   Clear
5:55 AM 21.2 °F - 19.4 °F 93% 30.59 in 10.0 mi Calm Calm - N/A   Clear
6:15 AM 21.2 °F - 17.6 °F 86% 30.59 in 10.0 mi Calm Calm - N/A   Clear
6:35 AM 21.2 °F - 17.6 °F 86% 30.60 in 10.0 mi Calm Calm - N/A   Clear
6:55 AM 19.4 °F - 17.6 °F 93% 30.60 in 10.0 mi Calm Calm - N/A   Clear
7:15 AM 21.2 °F - 19.4 °F 93% 30.59 in 10.0 mi Calm Calm - N/A   Clear
7:35 AM 21.2 °F - 17.6 °F 86% 30.60 in 10.0 mi Calm Calm - N/A   Clear
7:55 AM 21.2 °F - 19.4 °F 93% 30.60 in 10.0 mi Calm Calm - N/A   Clear
8:15 AM 21.2 °F - 19.4 °F 93% 30.61 in 10.0 mi Calm Calm - N/A   Clear
8:35 AM 24.8 °F - 21.2 °F 86% 30.61 in 10.0 mi Calm Calm - N/A   Clear
8:55 AM 26.6 °F - 21.2 °F 80% 30.60 in 10.0 mi Calm Calm - N/A   Clear
9:15 AM 26.6 °F 21.2 °F 21.2 °F 80% 30.60 in 10.0 mi ESE 4.6 mph - N/A   Clear
9:35 AM 28.4 °F 23.3 °F 23.0 °F 80% 30.60 in 10.0 mi East 4.6 mph - N/A   Clear
9:55 AM 28.4 °F 23.3 °F 21.2 °F 74% 30.60 in 10.0 mi East 4.6 mph - N/A   Clear
10:15 AM 28.4 °F 24.6 °F 23.0 °F 80% 30.59 in 10.0 mi ESE 3.5 mph - N/A   Clear
10:35 AM 30.2 °F - 21.2 °F 69% 30.59 in 10.0 mi Calm Calm - N/A   Clear
10:55 AM 32.0 °F - 21.2 °F 64% 30.59 in 10.0 mi Calm Calm - N/A   Clear
11:15 AM 32.0 °F 28.7 °F 21.2 °F 64% 30.57 in 10.0 mi SE 3.5 mph - N/A   Clear
11:35 AM 32.0 °F 28.7 °F 21.2 °F 64% 30.56 in 10.0 mi ENE 3.5 mph - N/A   Clear
11:55 AM 33.8 °F - 21.2 °F 60% 30.55 in 10.0 mi Calm Calm - N/A   Clear
12:15 PM 33.8 °F - 21.2 °F 60% 30.53 in 10.0 mi Calm Calm - N/A   Clear
12:35 PM 35.6 °F 32.8 °F 21.2 °F 56% 30.51 in 10.0 mi SW 3.5 mph - N/A   Clear
12:55 PM 35.6 °F - 21.2 °F 56% 30.50 in 10.0 mi Calm Calm - N/A   Clear
1:15 PM 37.4 °F - 21.2 °F 52% 30.49 in 10.0 mi Calm Calm - N/A   Clear
1:35 PM 37.4 °F - 21.2 °F 52% 30.48 in 10.0 mi Calm Calm - N/A   Clear
1:55 PM 37.4 °F - 23.0 °F 56% 30.47 in 10.0 mi Calm Calm - N/A   Clear
2:15 PM 37.4 °F 34.9 °F 23.0 °F 56% 30.46 in 10.0 mi NE 3.5 mph - N/A   Clear
2:35 PM 37.4 °F 34.9 °F 23.0 °F 56% 30.45 in 10.0 mi NE 3.5 mph - N/A   Clear
2:55 PM 39.2 °F - 23.0 °F 52% 30.43 in 10.0 mi Calm Calm - N/A   Clear
3:15 PM 39.2 °F 37.0 °F 23.0 °F 52% 30.42 in 10.0 mi ESE 3.5 mph - N/A   Clear
3:35 PM 41.0 °F - 23.0 °F 49% 30.41 in 10.0 mi Calm Calm - N/A   Clear
3:55 PM 39.2 °F - 23.0 °F 52% 30.40 in 10.0 mi Calm Calm - N/A   Clear
4:15 PM 39.2 °F 37.0 °F 23.0 °F 52% 30.40 in 10.0 mi ENE 3.5 mph - N/A   Clear
4:35 PM 35.6 °F - 24.8 °F 65% 30.40 in 10.0 mi Calm Calm - N/A   Clear
4:55 PM 35.6 °F - 23.0 °F 60% 30.39 in 7.0 mi Calm Calm - N/A   Clear
5:15 PM 35.6 °F - 23.0 °F 60% 30.40 in 10.0 mi Calm Calm - N/A   Clear
5:35 PM 35.6 °F - 23.0 °F 60% 30.41 in 10.0 mi Calm Calm - N/A   Clear
5:55 PM 33.8 °F - 23.0 °F 65% 30.40 in 10.0 mi Calm Calm - N/A   Clear
6:15 PM 33.8 °F 29.6 °F 21.2 °F 60% 30.40 in 10.0 mi East 4.6 mph - N/A   Clear
6:35 PM 30.2 °F - 21.2 °F 69% 30.40 in 10.0 mi Calm Calm - N/A   Clear
6:55 PM 30.2 °F - 21.2 °F 69% 30.40 in 10.0 mi Calm Calm - N/A   Clear
7:15 PM 30.2 °F - 21.2 °F 69% 30.40 in 10.0 mi Calm Calm - N/A   Clear
7:35 PM 28.4 °F - 21.2 °F 74% 30.39 in 10.0 mi Calm Calm - N/A   Clear
7:55 PM 28.4 °F - 21.2 °F 74% 30.39 in 10.0 mi Calm Calm - N/A   Clear
8:15 PM 26.6 °F - 21.2 °F 80% 30.39 in 10.0 mi Calm Calm - N/A   Clear
8:35 PM 26.6 °F - 21.2 °F 80% 30.38 in 10.0 mi Calm Calm - N/A   Clear
8:55 PM 26.6 °F - 23.0 °F 86% 30.38 in 10.0 mi Calm Calm - N/A   Clear
9:15 PM 26.6 °F - 23.0 °F 86% 30.38 in 10.0 mi Calm Calm - N/A   Clear
9:35 PM 26.6 °F - 23.0 °F 86% 30.38 in 10.0 mi Calm Calm - N/A   Clear
9:55 PM 26.6 °F - 21.2 °F 80% 30.37 in 10.0 mi Calm Calm - N/A   Clear
10:15 PM 24.8 °F - 21.2 °F 86% 30.37 in 10.0 mi Calm Calm - N/A   Clear
10:35 PM 24.8 °F - 21.2 °F 86% 30.36 in 10.0 mi Calm Calm - N/A   Clear
10:55 PM 24.8 °F - 21.2 °F 86% 30.35 in 10.0 mi Calm Calm - N/A   Clear
11:15 PM 26.6 °F - 21.2 °F 80% 30.34 in 10.0 mi Calm Calm - N/A   Clear
11:35 PM 24.8 °F - 21.2 °F 86% 30.33 in 10.0 mi Calm Calm - N/A   Clear
11:55 PM 23.0 °F - 21.2 °F 93% 30.32 in 10.0 mi Calm Calm - N/A   Clear